CAPE
8 5 6 8 4 7 8 7 9 9 8 8 7 4 3 4 9 0 0 0 0 0 0 0 0 0 181 398 582 747 724 788 880 694 518 383 409 513 12 0 231 629 421 283 330 358 360 969 727 1197 1601 1418 1380 1536
3 4 5 7 7 5 6 6 6 7 8 8 6 3 4 5 7 1 0 0 0 0 0 0 0 0 0 15 213 467 749 975 1024 1114 474 647 526 264 395 374 205 296 98 255 289 1291 1565 1449 1574 1448 1451 1500 1411 1413
1 2 5 5 8 5 5 4 5 7 5 6 4 3 3 5 5 2 0 0 0 0 0 0 0 0 0 0 0 233 336 646 878 1076 1149 933 773 1261 787 509 423 589 515 631 536 367 1155 1320 1227 1314 1343 1271 1259 1324
1 2 4 4 5 5 4 4 4 2 4 2 2 2 3 5 7 5 0 0 0 0 0 1 0 0 0 0 0 0 61 501 835 707 723 723 603 810 554 952 900 823 753 897 677 835 1458 1115 1219 1284 1263 1246 1306 1514
3 4 3 4 5 6 2 5 5 2 1 0 2 1 5 7 8 6 0 0 0 0 0 0 0 0 0 0 0 0 0 90 565 585 597 622 477 624 589 533 538 500 740 945 1626 1079 1324 1450 1262 1132 1174 1222 1257 1369
4 6 6 7 9 5 5 4 3 1 0 2 2 6 7 10 4 0 0 0 0 0 0 0 12 0 0 0 0 0 0 18 80 372 388 407 862 493 364 221 417 399 784 895 1457 1495 1708 1445 1059 1046 1039 874 833 845
4 7 7 8 9 7 9 11 6 2 2 4 8 5 4 5 2 0 1 0 0 0 2 0 76 15 235 175 60 0 3 32 209 374 382 323 697 457 426 133 0 510 695 997 1165 1219 1220 971 1039 821 709 471 251 523
3 3 4 9 8 10 7 9 2 4 4 3 5 1 0 1 0 0 0 0 0 0 4 2 87 281 322 256 236 309 391 290 415 373 304 335 444 621 265 589 44 973 860 973 1202 1233 1424 1311 916 485 112 16 7 24
2 3 5 9 11 11 8 1 1 3 3 1 0 0 0 0 0 4 0 0 0 1 27 3 17 428 465 397 470 358 330 372 225 344 393 349 370 713 521 544 1148 1131 1126 1300 1016 784 837 590 180 19 4 0 1 21
1 2 6 4 10 10 7 1 2 1 0 0 0 0 36 3 0 0 1 10 12 38 7 0 2 158 746 247 599 464 424 469 398 422 287 299 490 1286 1556 1110 1281 1344 1285 1398 941 334 7 0 0 5 2 0 13 14
0 2 8 6 9 5 1 2 2 0 0 0 0 1 0 0 1 54 75 37 64 50 37 6 3 12 41 401 547 706 642 407 212 178 197 229 308 1387 1410 1445 1627 1448 1253 897 329 62 5 14 16 14 1 0 0 2
0 2 6 2 8 4 2 5 2 0 2 0 0 0 0 55 40 77 72 62 43 179 632 578 531 259 60 4 492 600 205 283 186 350 313 308 1211 1694 1496 1501 1368 1204 749 279 14 1 4 2 0 0 0 0 0 0
0 2 6 4 3 1 2 3 4 6 0 2 1 2 11 47 24 44 41 96 261 498 394 417 461 723 336 47 283 472 282 109 95 119 192 984 1770 1759 1445 1205 1208 673 67 7 3 3 12 5 2 0 0 0 0 0
0 3 5 2 0 0 3 3 5 0 0 4 39 53 33 26 49 96 100 134 348 348 430 323 471 693 675 124 224 320 197 239 52 18 58 1710 1623 1564 1139 953 397 77 32 39 83 106 148 184 97 20 0 0 1 5
3 2 0 0 0 0 1 2 0 0 0 13 41 23 22 49 54 64 61 128 297 284 387 329 368 389 450 353 334 272 125 108 101 129 1369 1940 1735 1447 1093 512 255 196 240 335 357 315 241 195 197 105 12 11 47 70
5 0 0 0 0 0 0 0 2 6 23 39 18 38 49 59 46 80 212 280 313 300 272 396 381 71 20 46 115 119 53 63 377 369 1304 1981 1494 1289 1232 330 268 339 446 717 454 333 248 176 194 179 73 61 88 95
1 1 0 0 0 0 0 0 20 57 53 22 10 42 54 94 227 377 498 658 802 583 370 273 176 39 13 6 9 168 291 622 1098 987 1177 1464 1548 1367 909 538 524 711 859 837 673 350 297 227 137 181 267 142 136 61
0 0 0 0 1 0 1 2 57 40 36 16 15 78 98 272 363 94 54 458 652 690 476 272 390 168 43 27 30 39 228 591 913 1307 1506 1337 1237 1063 889 819 832 875 834 815 511 340 276 250 275 134 340 208 224 165
10 6 1 0 5 4 6 52 41 81 14 31 40 110 389 197 20 22 72 74 92 391 648 498 263 92 141 317 273 318 420 856 916 1227 1342 1068 1050 941 829 875 893 848 617 521 389 247 311 165 244 401 172 91 44 46
1 0 0 0 0 22 60 114 39 149 155 98 100 145 282 50 36 49 33 57 118 496 360 263 265 382 357 211 135 235 313 245 602 1013 862 980 563 603 543 423 633 503 385 290 218 28 252 157 73 42 154 486 72 30
0 0 0 1 4 46 173 212 260 209 166 185 297 456 326 37 70 34 127 263 116 9 86 108 189 170 53 17 26 38 28 670 642 727 569 230 230 276 275 317 295 437 343 315 336 26 21 229 64 139 140 78 148 211
12 0 17 30 184 241 242 236 201 257 254 248 291 405 497 262 107 94 136 82 34 3 15 41 69 74 21 34 105 108 309 605 195 34 17 31 102 116 61 78 63 49 54 201 125 224 268 386 256 321 393 479 124 100
0 0 119 177 198 71 46 132 200 233 194 139 212 252 150 215 347 185 297 265 101 115 114 142 127 87 82 71 110 295 212 116 79 75 85 91 194 151 141 286 138 309 381 325 179 306 299 11 79 115 163 393 584 60
0 64 199 197 148 45 66 116 87 61 47 209 170 184 107 150 215 242 130 324 532 601 167 104 243 171 104 81 435 105 88 73 65 48 63 89 170 242 277 139 95 98 263 434 347 193 333 276 59 351 401 466 274 101
0 0 13 1 115 86 29 17 17 14 17 30 134 250 164 84 48 165 182 313 954 683 514 479 537 471 185 221 446 165 147 42 35 38 37 35 33 28 36 70 86 34 17 52 38 0 7 17 21 46 39 70 231 159
0 91 8 104 118 97 34 32 21 68 38 16 45 310 257 159 25 61 368 439 792 572 613 621 573 265 349 127 111 42 21 40 36 35 24 17 15 19 19 16 17 46 49 17 22 26 16 13 12 10 22 9 0 0
12 106 117 109 63 111 156 115 160 162 88 150 242 196 185 53 67 397 644 658 804 621 575 322 267 319 135 67 35 42 58 36 33 26 25 20 28 41 35 31 17 3 9 18 41 23 25 27 28 23 22 25 33 31
28 81 88 202 136 96 145 274 250 242 213 327 288 124 135 218 228 558 821 729 568 450 329 432 321 155 128 87 42 21 23 26 16 40 42 36 50 37 43 25 20 0 2 1 2 18 7 3 1 3 3 4 5 6
25 17 17 109 235 102 184 194 228 269 430 648 453 278 150 341 618 665 797 675 642 88 462 281 276 135 74 73 58 66 101 89 165 129 101 77 119 92 70 46 47 48 41 3 0 0 0 0 0 1 16 11 5 6
16 3 26 64 129 137 196 124 119 116 182 573 632 319 275 509 560 473 757 693 849 565 315 162 231 307 369 134 107 144 126 74 45 32 72 29 29 22 48 41 33 30 36 39 41 29 0 4 9 8 41 63 65 39
76 30 173 46 30 193 168 167 53 111 256 404 475 445 363 371 289 274 349 507 455 645 171 223 71 236 217 159 253 14 25 0 0 0 0 8 60 44 41 23 33 43 54 55 58 71 71 55 67 74 77 89 98 54
120 126 121 216 223 323 252 166 104 170 156 257 433 446 340 29 24 431 850 504 363 452 74 48 385 342 417 218 50 1 0 16 14 1 0 5 41 31 32 47 47 42 42 60 63 59 67 72 82 68 71 92 100 62
71 114 119 349 177 283 349 319 134 236 229 347 436 444 152 191 330 454 403 487 629 590 442 255 300 313 335 200 26 6 10 54 5 0 0 0 0 0 0 1 28 28 27 43 49 52 56 65 77 75 64 85 74 81
CIN
0 0 0 0 0 0 0 0 0 0 0 0 0 0 0 0 -2 -1 0 0 0 0 0 0 0 0 -4 -3 0 -32 -3 -2 0 0 0 -1 0 -3 -51 0 -4 -14 0 0 0 0 -1 -15 -20 -5 -45 -96 -71 -59
0 0 0 0 0 0 0 0 0 0 0 0 0 0 0 0 -1 -2 0 0 0 0 0 0 0 0 0 -47 -7 -12 -1 -7 -6 -5 -1 0 -163 -186 -2 0 0 -1 -2 -1 -1 -6 -17 -27 -164 -266 -18 -61 -96 -86
0 0 0 0 0 0 0 0 0 0 0 0 0 0 0 -1 -2 -2 0 0 0 0 0 0 0 0 0 0 0 -13 -2 -1 -8 -12 -1 -5 0 -2 0 0 -1 -48 0 -2 -11 -5 -1 -6 -49 -23 -47 -55 -76 -77
0 0 0 0 0 0 0 0 0 0 0 0 0 0 0 0 -1 -3 0 0 0 0 0 0 0 0 0 0 0 -2 -27 -15 -1 -22 0 0 0 -4 0 -5 0 -6 -168 -2 0 -1 -15 -49 -35 -50 -57 -60 -52 -40
0 0 0 0 0 0 0 0 0 0 0 0 0 0 0 -1 -1 -1 0 0 0 0 0 0 0 0 0 0 0 0 0 -15 0 -2 -1 0 0 -1 0 0 0 0 0 0 -9 -81 -2 -1 -39 -34 -34 -40 -36 -4
0 0 0 0 0 0 0 0 0 0 0 0 0 0 0 0 -3 0 0 0 0 0 0 0 -23 0 0 0 0 0 0 -25 -16 0 0 0 -5 0 0 -6 -3 -6 -1 -18 0 0 0 0 -19 -10 -16 -43 -54 -49
0 0 0 0 0 0 0 0 0 0 0 0 0 0 0 -1 0 0 -1 0 0 0 0 0 -17 -9 -3 -12 -19 0 -4 -17 -1 0 0 -3 -4 -12 0 -82 -1 -7 -16 -15 -1 -2 -3 -14 -1 -35 -53 -83 -147 -68
0 0 0 0 0 0 0 0 0 0 0 0 0 0 -2 -2 0 0 0 0 0 0 -1 0 -3 0 -2 0 0 0 0 0 -1 0 -1 0 -134 -64 -6 -5 -66 -13 -29 -31 -3 -3 0 0 -21 -95 -168 -67 -122 -116
0 0 0 0 0 0 0 0 0 0 0 0 0 -1 0 0 0 -1 0 0 0 0 -2 0 -17 -25 0 0 -9 -3 -1 0 0 -8 -1 -1 0 -4 -1 -5 -1 -15 -17 -6 -18 -18 -12 -50 -119 -152 -166 0 -27 -150
0 0 0 0 0 0 0 0 0 0 0 0 0 0 0 -2 0 0 0 0 0 0 0 0 -1 -1 -3 -1 0 0 -2 -1 -8 -3 0 0 0 -4 -26 -1 -3 -7 -1 0 -9 -106 -191 0 -7 -165 -197 -9 -170 -167
0 0 0 0 0 0 0 0 0 0 0 0 0 0 0 0 -1 0 -1 0 -5 0 0 0 0 -1 -1 0 -3 -54 -30 -3 -1 -4 -4 0 -4 -4 -1 0 0 -10 -4 -6 -48 -97 -77 -108 -97 -118 -50 0 0 -57
0 0 0 0 0 0 0 -1 -1 0 0 0 0 0 0 -2 -6 -1 0 0 0 -1 -3 -2 -1 0 0 -6 -1 -12 -22 -1 -2 -1 0 -1 -1 -7 -2 0 -1 -3 -8 -50 -36 -17 -52 -51 0 0 0 0 0 0
0 0 0 0 0 0 0 -2 -1 -1 0 0 0 0 -1 0 -10 -1 0 0 -1 0 0 0 0 0 0 -8 -1 0 -1 -17 -7 -2 -1 -2 -3 -1 -5 -8 0 -16 -66 -97 -91 -101 -123 -125 -120 0 0 0 0 0
0 0 0 0 0 0 0 0 -1 -1 0 0 0 -28 -1 -1 0 0 0 0 0 0 0 0 0 -6 -1 0 -1 0 -1 0 -1 -4 -13 -2 0 -3 -22 -9 -27 -54 -72 -74 -72 -63 -52 -48 -59 -85 0 0 0 0
0 0 0 0 0 0 0 -2 -3 0 0 0 0 -32 -1 -1 0 0 -1 -1 0 0 0 0 0 -1 -6 0 0 -1 -10 0 0 -1 -6 -1 -1 -2 -13 -16 -18 -18 -9 -6 -5 -7 -11 -12 -8 -16 -39 -36 -20 -12
0 0 0 0 0 0 0 0 -1 0 0 -1 -1 -1 0 0 0 -8 0 0 0 0 0 -1 0 -2 -3 -19 -3 -6 -1 -1 -5 -1 -1 0 0 -1 0 -2 -2 -1 -1 -1 0 0 -1 -1 0 0 -3 -2 -1 0
0 0 0 0 0 0 0 0 0 0 0 -1 -5 0 -3 -28 0 0 0 0 0 0 0 0 0 -1 -13 0 -4 -3 -6 -4 -1 0 0 -1 -1 -1 -1 0 0 -1 0 0 0 0 0 0 0 0 0 -1 0 -2
0 0 0 0 0 0 0 -1 -10 0 -1 -2 -3 -1 0 0 0 -13 -3 0 0 0 0 0 -1 -4 0 -2 -3 -10 -12 -1 0 0 0 0 0 0 0 0 0 0 0 0 0 0 0 0 0 -2 -1 0 0 -1
0 0 0 0 0 0 0 -2 -11 -1 -1 -2 -4 -2 0 -1 -2 -2 0 -3 -1 0 0 0 0 0 -2 -2 0 0 0 0 0 0 0 0 0 0 0 0 0 0 0 0 0 -3 -14 -1 -1 -3 -1 -1 -1 -1
0 0 0 0 0 0 0 0 -10 0 -3 0 -6 -1 0 0 -12 -2 0 -4 0 0 0 0 0 -2 -1 -2 0 -11 -6 -28 -12 0 0 -4 -1 0 0 0 -10 0 0 -1 0 -18 -5 -1 0 0 -7 -3 -2 -2
0 0 0 0 0 -19 0 0 0 0 0 0 -3 -1 0 -1 -8 -1 0 0 -1 -1 0 0 0 0 0 -1 -1 -2 -62 -1 -1 -2 -4 0 -1 -3 -3 -1 -3 -3 -14 -12 -15 -52 -16 -14 -29 -3 -1 -1 -5 -8
-2 0 -63 -57 -2 0 -1 0 -4 0 0 -1 0 -7 -3 -1 -1 0 -4 0 0 -1 0 -1 -3 0 -1 -3 -3 -14 -12 -4 -43 -24 -12 -8 0 -1 0 0 0 0 0 -1 0 -17 -2 -7 -6 -8 -8 -24 -7 -14
0 0 -32 -8 0 -36 -4 -12 -2 -1 0 -1 -2 0 -2 -3 -1 -6 0 -1 -1 -4 -3 -3 -1 -3 -1 -14 -13 -32 -4 0 0 0 0 -1 -4 -6 -13 -3 0 -4 -11 -2 -2 -6 -2 -15 -9 -8 -137 -58 -5 -106
0 -47 -3 -13 -3 -14 0 -1 0 0 -1 0 0 0 -1 0 -1 0 0 -2 0 -1 -7 -10 -8 -1 -9 -31 -23 -1 0 -1 0 0 -1 -1 -3 -11 -9 -7 -8 -1 0 -2 -6 -1 -1 -1 -43 -17 -6 -3 -1 -5
0 0 -33 -1 -2 -7 0 -4 -1 -3 -2 -2 -1 0 -1 0 -1 -1 0 0 0 0 0 -3 0 0 -2 -8 -10 0 -11 -40 -1 -1 -1 0 0 0 0 0 -14 -19 -5 -29 -41 -8 -11 -1 0 0 -4 -3 -11 -18
0 -1 -3 -1 0 -2 0 0 -2 0 -1 -1 -1 0 0 -3 -1 0 0 0 0 0 0 0 0 -4 -2 0 0 0 0 -1 -1 0 0 -1 -1 -1 0 -1 0 0 0 -3 -2 -1 -1 -1 -1 -1 0 -1 0 -1
-13 0 0 -1 -9 -2 -1 -1 0 -2 -2 -2 0 0 0 -4 -4 0 0 0 0 0 -1 0 0 0 0 0 0 0 0 0 -1 0 0 -2 -1 -1 -1 0 0 0 0 -1 -1 0 0 -1 -1 -1 0 -1 0 0
0 -1 -2 0 -1 -1 -1 0 0 0 0 0 0 -3 0 0 0 0 0 -2 -1 -9 -1 0 -2 -1 0 0 0 0 0 -2 -1 -1 0 -1 -1 0 -1 -4 0 0 0 0 -1 0 0 -1 -1 0 0 0 0 0
-8 -2 -15 0 0 -1 0 0 0 0 0 0 0 0 -1 -1 0 0 0 0 -2 -86 -12 0 0 -1 0 0 -1 0 -1 -2 -11 -20 0 -1 -6 -2 -1 -1 -1 -1 -1 -5 0 0 0 0 0 0 -1 -1 0 0
-1 0 -12 -2 0 0 0 -4 -7 -10 0 0 0 0 0 0 0 0 0 0 -7 -4 0 -6 0 0 -10 -22 -1 -1 -1 -1 -13 0 -6 -43 -107 -97 -2 -1 0 0 0 -1 -1 -7 0 -3 -5 -25 -13 -1 -1 -1
0 -5 0 -13 -32 0 0 0 -19 -3 0 0 0 0 0 0 -1 -15 -3 0 -2 -3 -2 0 -5 -20 -2 -1 -3 -140 -62 0 0 0 0 -1 0 0 -1 -1 -1 0 -1 -1 -1 -1 -1 -3 0 0 0 -1 -1 -11
0 0 -1 -1 0 0 0 0 -3 -1 -1 0 0 0 -1 -5 -16 -3 -5 -1 0 -24 -24 -21 -3 -3 -1 -4 -1 -1 -1 0 0 0 0 0 0 -1 0 -1 -1 0 -1 0 0 -1 -1 -1 -1 -1 -1 0 -1 -5
-1 0 -3 0 -1 0 0 0 0 -2 -2 0 0 0 -6 -1 0 0 0 0 -5 -3 -25 -9 0 0 -2 -1 -1 -4 -1 0 -1 0 0 0 0 0 0 -1 0 -1 -1 0 0 -1 -1 0 0 0 -1 0 -1 0
Wind_Speed
17 17 17 17 17 17 17 17 17 16 16 15 15 14 13 13 11 9 7 2 7 7 14 14 12 10 8 7 10 9 3 7 7 11 11 11 12 6 6 10 20 2 12 10 10 15 19 8 2 12 8 5 5 5
17 17 18 18 18 17 17 17 16 16 16 16 14 13 11 11 11 9 7 2 4 7 10 15 14 16 14 15 12 8 7 6 5 4 10 7 7 13 13 14 3 10 11 8 11 2 5 5 8 9 17 4 4 4
18 18 18 18 19 18 18 17 17 17 16 15 13 12 11 10 9 7 8 7 6 8 13 15 14 19 18 17 14 10 4 5 3 8 7 4 1 16 14 11 16 11 11 6 10 11 5 3 5 9 7 2 1 3
19 20 19 19 19 19 19 18 18 18 17 17 15 15 13 11 10 8 8 4 5 7 7 3 1 7 8 15 17 14 8 5 4 4 5 6 5 1 7 4 9 6 10 16 11 11 5 4 5 5 4 3 5 6
19 20 20 20 20 20 20 19 18 19 18 18 18 17 14 12 9 9 8 8 7 7 8 10 16 9 14 9 14 15 12 10 4 5 5 7 6 1 6 6 10 11 7 9 4 12 3 8 6 4 6 6 6 7
19 19 19 20 19 20 20 20 20 19 18 18 20 18 15 11 8 7 6 7 8 7 6 6 5 5 6 8 12 14 11 9 7 6 6 5 7 3 5 7 9 4 5 8 8 6 7 8 7 6 5 3 5 5
19 20 20 20 20 19 19 19 19 18 18 20 19 19 15 9 8 5 7 6 2 5 6 6 4 9 5 9 9 8 11 8 7 8 9 7 6 6 10 7 8 21 0 7 6 2 7 7 8 5 5 4 1 4
20 20 20 20 21 20 20 19 20 19 20 21 19 13 3 10 9 8 6 6 6 6 6 6 6 4 12 8 7 8 8 8 7 8 8 6 3 1 8 6 24 13 6 10 5 6 3 9 7 6 3 4 2 5
19 20 20 20 20 20 21 20 20 20 22 19 9 5 5 6 5 7 10 5 6 6 7 5 10 3 5 9 3 5 8 7 5 6 10 9 9 3 8 9 3 6 6 10 8 4 6 7 6 4 3 3 3 5
20 20 20 21 20 20 18 18 18 23 24 12 6 7 6 6 8 7 5 6 6 7 6 7 10 4 8 6 8 5 2 7 5 7 1 5 13 4 6 2 5 6 2 10 10 8 6 6 6 5 5 4 5 5
21 20 21 21 20 18 16 14 18 22 17 6 3 4 5 6 5 5 5 6 7 7 6 6 8 9 3 6 4 5 6 6 5 5 3 5 8 3 7 8 8 8 7 7 6 7 6 6 6 6 6 5 6 6
22 21 21 22 19 16 13 13 13 10 6 6 6 6 4 5 4 6 5 5 6 3 4 4 4 6 5 4 6 6 3 9 7 3 1 8 5 10 8 9 9 9 9 7 9 8 8 7 7 6 5 5 6 6
23 22 22 22 17 11 14 14 14 11 10 5 6 6 3 3 2 7 7 2 3 3 3 3 2 3 3 5 5 3 3 3 4 4 6 2 9 9 10 9 10 10 11 12 11 9 8 7 5 4 4 3 3 5
24 25 24 19 8 9 15 15 12 5 7 6 4 2 5 5 4 3 4 3 2 1 4 5 1 3 6 6 3 5 4 5 4 8 15 8 12 13 12 10 11 12 12 12 11 9 7 6 5 3 2 2 3 5
25 27 26 10 7 13 15 13 6 6 5 4 4 3 2 4 6 4 4 3 3 3 4 5 2 1 2 6 3 4 4 7 8 7 7 8 11 12 12 12 12 12 10 10 8 7 6 5 5 4 1 1 2 2
25 28 3 7 13 17 16 9 6 4 4 5 4 7 5 7 6 4 6 5 7 5 3 1 0 1 3 6 5 6 5 3 3 3 9 8 11 10 10 12 11 10 10 6 6 6 6 5 3 2 3 3 3 0
25 5 13 18 20 23 8 5 5 6 5 2 3 4 5 4 6 5 6 5 6 6 7 3 6 3 6 2 4 3 4 5 8 6 7 7 8 8 9 11 11 9 7 7 4 4 4 3 1 4 0 2 5 3
7 13 17 18 16 9 5 6 4 4 3 5 3 3 5 6 5 5 5 6 4 3 2 3 2 4 4 4 4 4 3 3 3 5 6 7 9 8 6 7 6 6 5 7 5 6 5 4 5 3 3 3 6 7
16 17 22 20 7 5 4 4 3 4 2 5 2 2 4 2 6 4 6 5 4 4 4 3 5 5 5 2 2 2 2 2 2 5 6 8 8 8 8 8 7 6 7 5 5 4 4 4 1 3 5 1 2 4
27 18 15 7 6 6 6 3 2 4 2 2 3 2 5 5 2 3 4 5 3 3 4 2 3 4 3 2 3 2 2 4 2 5 6 6 8 7 5 5 5 7 5 6 5 3 2 2 3 1 3 3 3 1
13 5 3 6 6 7 5 3 3 3 5 2 3 5 2 0 2 3 4 4 4 4 3 4 5 4 4 0 1 1 3 5 2 2 2 6 5 6 5 4 5 3 5 3 3 1 7 4 4 3 5 2 3 5
3 6 5 4 5 3 5 1 4 5 4 2 3 3 3 1 1 2 1 3 2 3 1 2 3 4 5 3 3 2 4 4 6 6 4 2 3 3 2 1 3 3 2 2 3 3 5 2 3 4 4 2 3 3
9 5 5 4 3 1 6 2 3 4 3 3 1 2 0 2 2 3 2 3 1 3 1 2 3 3 4 6 6 10 5 6 7 6 5 7 7 6 5 4 5 6 5 4 3 3 2 4 2 2 5 8 4 6
4 5 5 4 3 4 2 4 3 3 2 3 3 2 3 3 1 3 3 3 3 3 3 3 3 4 2 4 4 6 6 6 6 7 7 7 9 3 4 2 5 6 5 4 4 2 4 4 4 3 2 2 3 1
4 3 3 4 4 4 2 2 2 1 3 3 3 3 3 2 1 4 5 3 5 5 3 3 3 6 6 3 2 4 4 2 4 5 6 6 7 7 7 8 8 5 7 5 5 5 2 3 1 3 4 5 5 7
2 2 1 4 3 3 3 3 3 3 3 1 4 3 3 3 3 4 4 5 6 5 4 5 6 7 5 5 3 5 4 2 7 5 6 5 5 5 6 8 7 6 7 7 8 7 4 2 3 4 3 9 7 7
2 3 2 1 3 3 2 4 4 2 4 5 4 5 2 2 4 4 3 3 4 3 3 5 8 5 3 7 6 4 4 8 7 6 4 3 3 6 8 9 9 6 4 5 5 6 6 6 8 8 8 9 8 9
3 3 5 7 4 3 5 6 7 6 4 4 3 4 5 4 3 4 3 2 3 4 6 5 4 4 6 4 5 6 5 6 5 1 4 2 3 5 8 6 6 3 6 8 9 10 10 8 7 6 7 7 7 8
2 3 2 4 4 2 3 5 5 2 2 4 3 1 2 3 3 3 3 4 5 3 1 6 5 5 5 4 2 2 5 8 15 11 2 4 8 7 3 3 1 6 5 9 7 6 5 6 7 7 5 5 6 7
1 1 2 3 3 3 4 4 6 7 6 6 2 3 4 3 0 3 4 3 2 2 2 3 1 2 5 5 1 3 1 3 4 3 5 5 9 12 1 2 3 2 3 5 4 10 6 8 7 9 8 5 4 6
1 1 2 1 1 3 2 4 6 7 7 5 4 3 4 2 2 2 2 1 0 1 3 4 3 2 4 5 10 1 8 7 7 7 6 7 5 5 5 5 4 3 2 5 6 6 4 6 7 9 9 8 6 5
3 1 2 1 2 4 2 2 5 4 7 6 6 4 3 3 1 2 4 2 2 3 4 5 5 3 2 5 3 6 4 3 6 8 10 8 8 6 4 5 4 4 4 6 7 9 10 11 11 10 9 14 10 4
3 1 3 1 1 3 2 2 1 4 3 6 4 5 5 3 4 0 3 1 2 1 1 2 4 2 2 5 5 3 5 4 5 5 2 2 3 5 7 9 9 11 12 12 13 14 15 15 12 10 8 11 11 10
Wind_Direction
339 340 339 338 338 336 336 334 333 331 330 328 327 329 329 332 334 317 316 341 293 289 293 291 283 274 261 259 284 3 152 217 214 245 239 244 247 213 132 190 268 9 227 211 251 262 258 50 256 317 23 80 23 39
336 335 335 335 336 335 333 331 330 329 328 327 326 325 323 324 323 327 276 119 288 260 297 324 285 284 272 289 317 181 352 327 10 297 251 268 53 344 306 277 213 239 254 283 289 75 32 34 92 32 313 34 34 1
332 333 333 333 334 334 333 332 331 330 328 327 328 331 326 315 308 303 304 326 269 258 263 233 240 224 224 236 264 287 183 13 239 334 320 303 110 190 261 285 297 168 227 252 263 256 146 130 137 162 212 58 4 30
329 330 331 330 331 332 331 329 328 325 322 318 317 317 310 298 288 276 268 310 263 280 277 146 64 191 224 204 218 244 290 242 323 251 262 284 259 228 268 336 288 343 37 320 252 232 148 168 110 120 134 98 72 70
326 327 327 327 327 329 329 327 324 321 319 314 310 310 305 294 280 266 259 254 265 289 327 320 316 250 194 190 205 217 238 252 232 218 232 246 262 11 274 294 280 265 227 237 323 5 136 119 110 120 105 76 55 50
326 326 325 325 325 328 327 327 325 322 317 309 309 302 294 280 254 244 231 174 218 228 277 272 15 206 192 185 202 205 217 230 247 259 258 255 128 261 259 242 279 335 333 359 360 7 94 139 122 87 93 59 45 41
326 326 326 325 327 327 325 322 323 320 313 315 312 304 286 235 218 265 13 19 158 219 252 269 228 158 208 190 194 194 202 216 233 232 244 239 201 203 243 172 225 268 175 60 341 52 109 132 119 82 52 20 173 49
326 326 325 326 327 324 324 323 321 315 315 323 321 325 159 162 270 251 166 215 244 258 263 268 260 181 170 184 171 188 189 204 209 248 254 246 108 111 255 273 182 181 128 131 221 320 256 115 103 85 74 315 45 17
324 323 324 326 324 321 322 324 321 316 316 321 298 139 184 229 222 64 124 142 228 293 304 251 266 64 204 232 96 180 207 202 235 217 255 229 244 256 268 253 67 109 159 165 148 145 82 102 100 94 99 49 27 18
323 324 326 328 323 322 321 324 323 317 310 316 220 216 198 53 123 160 158 195 199 202 225 260 286 280 225 226 190 236 202 194 150 259 191 212 241 140 107 324 138 156 171 154 150 139 149 142 119 109 90 57 26 25
322 322 324 327 326 325 325 326 327 319 288 213 271 22 54 143 222 214 230 211 200 215 198 228 259 294 256 261 236 11 110 248 228 168 219 230 254 138 147 154 155 141 159 146 122 145 128 121 125 106 79 60 50 29
320 321 322 326 322 322 326 319 321 305 7 345 311 271 255 212 231 247 220 220 225 71 2 9 309 301 297 2 279 146 171 186 210 133 231 230 149 133 155 151 141 154 151 139 133 120 115 105 90 87 72 54 47 47
318 320 320 322 318 304 319 319 312 282 272 203 227 228 217 232 350 231 216 188 51 16 339 299 302 258 200 235 289 257 300 310 323 193 210 116 134 137 134 147 152 149 146 137 138 127 117 113 117 113 106 69 41 39
318 318 319 320 308 314 319 318 319 268 255 244 201 252 243 213 290 348 5 343 304 284 291 313 353 321 292 188 223 252 189 229 278 238 226 135 147 139 139 150 153 154 151 145 144 148 136 146 135 146 136 81 19 32
319 317 316 308 274 322 322 323 292 243 272 269 271 266 267 319 236 219 208 262 233 285 319 317 64 300 324 286 256 215 171 232 199 248 88 110 136 141 148 158 162 157 156 151 154 154 158 141 184 157 178 222 45 3
321 306 13 345 342 331 321 280 221 244 237 249 257 272 321 324 344 345 353 318 344 318 318 165 146 49 53 339 282 276 245 227 43 56 101 119 132 137 155 165 158 153 159 150 146 146 150 180 196 101 155 237 217 243
311 237 21 359 338 314 283 250 222 222 271 262 259 304 5 341 343 353 330 320 307 293 245 223 204 154 130 191 267 235 294 350 337 28 84 111 129 155 163 154 156 158 143 111 165 165 162 92 185 201 31 266 349 40
269 320 328 329 331 293 193 219 256 254 242 271 297 296 349 6 325 337 330 314 292 279 240 236 137 198 210 217 198 225 219 263 299 87 108 131 142 152 142 136 126 124 163 203 189 157 178 199 220 159 217 210 234 163
296 298 299 300 298 303 269 208 245 271 290 2 29 277 40 38 31 309 289 290 279 268 275 235 223 235 236 88 200 301 238 273 128 115 120 123 127 130 135 145 156 177 180 164 191 226 128 146 138 188 256 227 252 56
300 282 267 255 224 257 234 201 204 285 300 325 324 345 44 22 322 305 313 279 305 253 225 259 13 13 346 346 342 325 342 318 16 127 129 153 119 132 151 158 121 149 187 164 212 26 138 239 188 179 355 29 351 21
277 55 246 209 202 241 293 287 298 355 325 312 299 67 104 172 323 340 19 6 26 359 304 28 335 6 24 190 119 239 313 268 123 140 124 120 117 103 150 136 196 205 139 180 171 93 259 151 192 280 187 201 207 231
357 318 282 162 269 208 261 239 300 333 269 323 273 117 164 212 94 52 150 75 32 284 306 11 28 358 6 20 114 309 228 150 121 135 177 113 123 109 122 187 214 225 227 99 232 155 189 312 312 200 175 290 265 42
276 204 228 234 269 306 267 284 292 278 289 308 193 5 225 54 27 133 73 88 150 218 259 340 354 355 356 354 159 223 191 114 111 110 92 73 56 58 57 31 40 51 48 43 358 42 312 36 195 286 163 175 233 166
156 278 308 293 231 276 253 267 196 284 340 297 351 8 15 102 142 77 51 44 41 117 170 220 169 120 104 276 272 123 107 93 84 91 104 121 117 72 51 106 110 99 95 132 147 148 52 72 34 286 221 142 276 330
291 281 210 280 258 260 248 297 287 266 282 354 350 9 330 14 258 76 63 34 26 45 88 98 116 132 136 152 301 90 74 262 92 104 112 112 101 105 105 118 116 105 85 54 68 91 93 54 116 86 167 163 204 234
291 171 143 343 313 310 330 290 323 340 294 9 10 6 341 301 71 53 69 21 36 32 47 79 107 118 168 140 127 90 80 66 105 116 105 95 83 86 108 112 104 131 146 165 182 190 156 135 117 271 237 174 179 258
299 25 359 6 308 307 298 305 335 332 345 14 348 329 309 320 79 68 87 29 41 51 112 109 122 133 120 83 89 104 92 70 77 85 71 80 65 45 54 60 54 24 358 345 11 25 352 0 9 6 1 347 359 355
340 331 334 351 327 42 347 349 359 11 16 357 360 356 5 32 62 74 43 332 267 124 102 92 80 82 75 88 124 144 122 132 175 157 28 320 131 95 64 55 74 67 40 31 357 15 6 17 357 11 12 4 3 359
256 324 329 339 344 49 38 31 9 350 61 334 327 73 136 43 18 40 11 333 32 99 278 116 102 131 146 155 109 95 46 53 17 349 163 23 17 351 42 86 162 183 182 116 81 55 23 5 0 353 5 22 5 347
156 67 333 19 8 57 6 2 18 15 28 52 46 106 139 155 276 339 21 31 58 18 93 104 50 8 67 5 83 46 329 73 154 277 107 153 202 229 297 30 80 345 4 330 183 156 198 225 225 254 273 350 5 357
181 226 315 273 66 94 356 9 56 37 30 46 46 45 67 64 78 313 336 2 146 204 130 147 132 276 239 177 91 359 271 67 54 45 349 321 32 60 41 5 306 313 6 332 333 324 292 301 311 313 316 317 357 317
250 224 118 57 36 59 143 287 89 60 79 81 59 48 94 124 71 98 299 53 246 156 255 249 65 352 47 168 92 79 319 43 60 39 24 2 20 26 296 274 267 291 319 312 292 285 297 304 296 299 321 321 306 343
276 327 339 93 261 134 149 276 190 127 83 70 73 82 86 82 75 194 138 59 220 290 84 286 106 95 85 285 71 93 233 44 89 82 11 346 4 339 313 309 339 349 336 330 328 321 312 299 295 298 287 282 292 286